www.pogodaiklimat.ru

Погода и климат >> Архив погоды >> Россия >> Забайкальский край >> Забайкальск


ПОГОДА в Забайкальске

  • Прогноз погоды в Забайкальске
  • Монитор погоды в Забайкальске
  • Климат города

АРХИВ ПОГОДЫ в Забайкальске

Время (UTC), дата Ветер
(напр.,м/с)
 
Видим.   Явления Облачность Т
(С)
Тd
(С)
f
(%)
Тe
(С)
Тes
(С)
Комфортность P
(гПа)
Po
(гПа)
Тmin
(С)
Tmax
(С)
R
(мм)
R24
(мм)
S
(см)
06 10.08 ЮВ 5
{12}
50 км 8/5 1000 м
[Cb calv Ci fib]
+27.4 +14.5 45 +30 +33 жарко 994.7 920.3
09 10.08 ЮВ 4 50 км 8/4 1000 м
[Cb calv Ci fib]
+27.3 +13.6 43 +29 +30 жарко 995.0 920.6
12 10.08 В 3
{12}
50 км 7 баллов +23.6 +15.1 59 +26 +26 жарко 998.3 922.7 +28.3
15 10.08 В 6 20 км 3/1 1000 м
[Sc diur, vesp Ci sp]
+21.0 +16.5 75 +24 +24 комфорт 998.7 922.6
18 10.08 В 5 20 км 3/0
[Ci sp]
+19.1 +16.6 85 +20 +20 1000.5 923.7
21 10.08 В 3 50 км 9/1 1000 м
[Sc Ci sp]
+17.9 +16.0 89 +18 +18 1001.7 924.5
00 11.08 В 4
{10}
50 км 8/3 1000 м
[Sc Ci sp]
+19.9 +17.0 83 +23 +25 комфорт 1001.2 924.6 +17.8
03 11.08 В 8
{13}
50 км 7 баллов +23.4 +16.9 67 +29 +29 душно 1002.6 926.7
06 11.08 В 6
{12}
50 км 6/3 1000 м
[Cu hum Ci sp]
+27.6 +16.6 51 +31 +34 душно 998.6 924.1
09 11.08 В 7
{10}
50 км 7 баллов +27.3 +16.3 51 +31 +31 душно 1000.1 925.3
12 11.08 В 8-12
{14}
50 км 9/9 600 м
[Cb cap]
+22.6 +17.9 75 +28 +28 душно 1000.0 924.2 +28.3
15 11.08 ЮВ 1
{12}
20 км в посл. час ливневой дождь 10 баллов +19.1 +16.7 86 +22 +22 комфорт 1005.2 928.0
18 11.08 С 3 20 км 8/8 600 м
[Cb cap]
+17.0 +16.0 94 +17 +17 1004.8 927.2
21 11.08 СЗ 3 50 км 6/3 1000 м
[Sc Ci sp]
+17.5 +15.6 89 +17 +17 1005.3 927.8
00 12.08 В 7
{14}
50 км 8/5 600 м
[Cb cap Ci sp]
+20.1 +17.1 83 +23 +23 комфорт 1005.2 928.4 +16.7 5
03 12.08 ЮВ 6
{10}
50 км 7 баллов +24.8 +17.5 64 +29 +30 душно 1005.0 929.3
06 12.08 ЮВ 7
{11}
50 км 5/4 600 м
[Cb calv Ci fib]
+27.8 +15.0 46 +30 +32 жарко 1002.8 927.9
09 12.08 В 3
{16}
20 км гроза, ливневой дождь 9 баллов +23.9 +18.1 70 +28 +28 душно 1005.3 929.3
12 12.08 ЮВ 3
{18}
20 км зарница {гроза, ливн. осадки} 10/10 600 м
[Cb cap]
+20.1 +13.5 66 +22 +22 комфорт 1005.6 928.6 +29.3 3
15 12.08 СЗ 3
{11}
20 км зарница 10 баллов +17.4 +15.2 87 +17 +17 1008.6 930.7
18 12.08 З 1 20 км {гроза} 9/9 600 м
[Cb cap]
+17.7 +15.4 86 +19 +19 1006.6 929.0
21 12.08 СВ 1 50 км 10/10 600 м
[Cb cap]
+17.1 +15.4 90 +18 +18 1007.9 930.0
00 13.08 В 4
{11}
50 км 8/3 600 м
[Cb cap Ci sp]
+21.1 +17.1 78 +25 +27 комфорт 1007.3 930.6 +16.9 3
03 13.08 В 5 50 км гроза без осадков 10/10 600 м
[Cb cap]
+22.1 +17.5 75 +27 +27 душно 1006.9 930.5
06 13.08 СВ 5 4000 м гроза, ливневой дождь 10/10 600 м
[Cb cap]
+19.0 +18.4 96 +20 +20 1007.3 930.1
09 13.08 В 6 50 км 6/3 600 м
[Cb cap Ci sp]
+24.3 +18.1 68 +29 +29 душно 1004.8 929.1
12 13.08 В 4
{10}
50 км 9/3 600 м
[Cb cap Ci sp]
+19.3 +15.2 77 +21 +21 комфорт 1007.4 930.1 +24.5 9
15 13.08 ЮВ 1 20 км 3/0
[Ci sp]
+17.5 +15.2 86 +19 +19 1008.2 930.4
18 13.08 В 1 20 км 8/0
[Ci sp]
+17.1 +15.4 90 +18 +18 1008.5 930.6
21 13.08 С 2 50 км 9/3 600 м
[Cb cap Ci sp]
+14.7 +13.9 95 +14 +14 1009.1 930.5
00 14.08 В 3
{6}
20 км 8/4 600 м
[Cb cap Ci sp]
+19.7 +16.8 83 +22 +24 комфорт 1008.3 931.1 +14.3
03 14.08 СВ 4 50 км 9/8 600 м
[Cb cap Ci sp]
+22.4 +17.4 73 +27 +29 душно 1007.3 930.9
06 14.08 В 5 50 км 9/6 600 м
[Cb cap Ci sp]
+24.7 +17.9 66 +29 +31 душно 1004.6 929.0
09 14.08 З 6
{10}
20 км гроза, ливневой дождь 10 баллов +18.6 +17.3 92 +19 +19 1006.7 929.3
12 14.08 СЗ 1
{10}
10 км слабый ливневой дождь, в посл. час гроза 10/10 600 м
[Cb cap]
+16.5 +15.7 95 +17 +17 1008.9 930.8 +25.6 9
15 14.08 СВ 1 20 км 3/3 600 м
[Cb cap]
+16.6 +14.5 87 +17 +17 1008.0 929.9
18 14.08 СЗ 2 20 км 4/0
[Ci sp]
+14.2 +13.6 96 +14 +14 1009.5 930.7
21 14.08 С 2 20 км 10/10 600 м
[Cb cap]
+15.7 +15.0 96 +16 +16 1009.4 931.0
00 15.08 ЮВ 4
{8}
20 км 9/6 600 м
[Cb cap Ci sp]
+18.0 +16.4 90 +18 +19 1009.7 931.9 +14.0 2
03 15.08 В 3 50 км 8/4 1000 м
[Cu med, cong Ci sp]
+21.6 +17.1 76 +26 +31 душно 1009.0 932.2
06 15.08 В 4 50 км 8/6 600 м
[Cb cap Ci sp]
+23.6 +17.1 67 +27 +30 жарко 1007.7 931.5
09 15.08 В 4 50 км ясно +23.7 +16.3 63 +27 +29 жарко 1007.8 931.6
12 15.08 СВ 2
{9}
50 км 6 баллов +19.8 +16.8 83 +23 +23 комфорт 1010.7 933.3 +24.0
15 15.08 В 2 20 км {ливн. осадки} 9/9 600 м
[Cb cap]
+19.3 +17.3 88 +22 +22 комфорт 1011.1 933.6
18 15.08 В 2 20 км {ливн. осадки} 6/6 600 м
[Cb cap]
+18.1 +17.3 95 +19 +19 1011.7 933.8
21 15.08 ЮЗ 1 50 км 9/9 600 м
[Cb cap]
+18.0 +16.9 93 +19 +19 1012.4 934.5
00 16.08 В 2
{9}
50 км 8/8 600 м
[Cb cap]
+19.9 +17.4 86 +23 +24 комфорт 1012.6 935.1 +17.5 0.8
03 16.08 В 4 50 км 9/5 600 м
[Cb cap Ci sp]
+23.6 +18.0 71 +28 +32 душно 1011.5 935.1
06 16.08 В 6
{10}
50 км 9/9 600 м
[Cb cap]
+23.0 +17.9 73 +28 +29 душно 1010.8 934.2
09 16.08 В 4 50 км 9/8 600 м
[Cb cap Ci sp]
+24.4 +17.3 65 +28 +29 душно 1009.4 933.3
12 16.08 В 3
{10}
50 км 6 баллов +20.3 +17.9 86 +24 +24 комфорт 1012.1 934.7 +24.6
15 16.08 СЗ 1 20 км 3/0
[Ci sp]
+17.8 +16.5 92 +19 +19 1012.6 934.6
18 16.08 СЗ 2 20 км ясно +15.4 +14.7 96 +15 +15 1013.0 934.3
21 16.08 С 1 50 км 3/0
[Ci sp]
+14.0 +13.6 97 +14 +14 1013.6 934.4
00 17.08 Ю 1
{5}
50 км 3/0
[Ci sp]
+20.9 +17.4 80 +26 +31 душно 1012.1 935.0 +13.9
03 17.08 В 2 50 км 5/4 1000 м
[Cb calv Ci sp]
+24.4 +17.5 65 +28 +36 душно 1010.8 934.6

 

Местоположение метеостанции Забайкальск (Забайкальский край, Россия): широта 49.63 долгота 117.30 высота над уровнем моря 694 м.

В архиве по умолчанию представлена погода в Забайкальске за последнюю неделю. Архивные данные за месяц целиком и за предыдущие месяцы, начиная с января 2011 года, Вы можете получить, выбрав интересующий диапазон дат из раскрывающегося списка и нажав кнопку "Ввод!".

Внимание! Время в таблицах - всемирное. Для получения местного времени необходимо прибавить поправку, которая в Забайкальске равна 9 ч.

Смотрите также архив погоды в соседних городах и на ближайших метеорологических станциях:

Погода в Кайластуе (Забайкальский край, Россия) (75 км)
Погода в Борзе (Забайкальский край, Россия) (103 км)
Погода в Xin Barag Youqi (Китай) (113 км)
Погода в Соловьевске (Забайкальский край, Россия) (119 км)
Погода в Приаргунске (Забайкальский край, Россия) (149 км)
Погода в Александровском Заводе (Забайкальский край, Россия) (150 км)
Погода в Hailar (Китай) (183 км)
Погода в Оловянной (Забайкальский край, Россия) (195 км)
Погода в Dashbalbar (Монголия) (209 км)
Погода в Балее (Забайкальский край, Россия) (218 км)

Пояснения к столбцам:

Ветер - указаны скорость ветра в м/с - средняя за 10 мин, порывы в срок и между сроками (в фигурных скобках) и направление, откуда дует ветер: С - северный, СВ - северо-восточный, В - восточный, ЮВ - юго-восточный, Ю - южный, ЮЗ - юго-западный, З - западный, СЗ - северо-западный.
Видимость - горизонтальная дальность видимости в метрах или километрах. При видимости от 1 до 10 км при отсутствии осадков обычно наблюдается дымка, при ухудшении видимости до 1 км и менее - туман. В сухую погоду видимость может ухудшаться дымом, пылью или мглою.
Явления - указаны атмосферные явления, наблюдавшиеся в срок или в последний час перед сроком; фигурными скобками обозначены явления, наблюдавшиеся между сроками (за 1-3 часа до срока); квадратными скобками обозначены град или гололедные отложения с указанием их диаметра в мм.
Облачность - указаны через наклонную черту общая и нижняя облачность в баллах и высота нижней границы облаков в метрах; квадратными скобками обозначены формы облаков: Ci - перистые, Cs - перисто-слоистые, Cc - перисто-кучевые, Ac - высококучевые, As - высокослоистые, Sc - слоисто-кучевые, Ns - слоисто-дождевые, Cu - кучевые, Cb - кучево-дождевые. Подробнее классификацию облаков см. в Атласе облаков (PDF).
T - Температура воздуха - температура, измеренная на высоте 2 м над землей.
Td - Температура точки росы - температура, при понижении до которой содержащийся в воздухе водяной пар достигнет насыщения.
f - Относительная влажность воздуха - влажноcть воздуха, измеренная на высоте 2 м над землей.
Te - Эффективная температура - температура, которую ощущает одетый по сезону человек в тени. Характеристика душности погоды. При расчете учитывается влияние влажности воздуха и скорости ветра на теплоощущения человека.
Tes - Эффективная температура на солнце - температура, которую ощущает человек, с поправкой на солнечный нагрев. Характеристика знойности погоды. Зависит от высоты солнца над горизонтом, облачности и скорости ветра. Ночью, в пасмурную погоду, а также при ветре 12 м/с и более поправка равна нулю.
P - Атмосферное давление - приведенное к уровню моря атмосферное давление.
Po - Атмосферное давление - измеренное на уровне метеостанции атмосферное давление.
Tmin - Минимальная температура - минимум температуры воздуха на высоте 2 м над землей.
Tmax - Максимальная температура - максимум температуры воздуха на высоте 2 м над землей.
R - Количество осадков - Количество выпавших осадков за период времени, мм. При наведении курсора мыши на число - период времени, за который выпало указанное количество осадков.
R24 - Количество осадков - Количество выпавших осадков за 24 часа, мм.
S - Снежный покров - Высота снежного покрова, см. При наведении курсора мыши на число - состояние снежного покрова и степень покрытия местности в баллах.